Location: DAV
(33.5613°N, 82.7640°W)
Time: 15:43:17
(UTC-04:00)

ISS - Visible Passes

Search period start: 31 October 2020 00:00
Search period end: 09 November 2020 23:00
Orbit: 417 x 420 km, 51.6° (Epoch: 31 October)

Date Brightness Start Highest point End Pass type
(mag) Time Alt. Az. Time Alt. Az. Time Alt. Az.
06 Nov -1.2 06:15:34 10° N 06:17:40 15° NNE 06:19:45 10° ENE visible
07 Nov -0.9 05:28:57 10° NNE 05:29:38 10° NNE 05:30:18 10° NE visible
08 Nov -2.6 06:15:53 10° NNW 06:19:04 39° NE 06:22:14 10° ESE visible
09 Nov -1.7 05:29:40 17° N 05:31:10 23° NE 05:33:55 10° E visible
